Tracking 30115 objects as of 9-Feb-2025
HD Live streaming from Space Station
objects crossing your sky now

NOAA 17 DEB

Track NOAA 17 DEB now!
10-day predictions


NORAD ID: 48724
Int'l Code: 2002-032BJ
Perigee: 674.5 km
Apogee: 718.3 km
Inclination: 98.8 °
Period: 98.5 minutes
Semi major axis: 7067 km
RCS: Unknown
Launch date: June 24, 2002
Source: United States (US)
Launch site: AIR FORCE WESTERN TEST RANGE (AFWTR)

Note: This is SATELLITE DEBRIS
Your satellite tracking list
Your tracking list is empty




NASA's NSSDC Master Catalog

Two Line Element Set (TLE):
1 48724U 02032BH  25039.75058198  .00020671  00000-0  41656-2 0  9994
2 48724  98.7720  42.6648 0030987  38.9504 321.3919 14.61209498205342
Source of the keplerian elements: AFSPC